FW3636 Weather Reports


time (UTC)temp
C
wind
direction
speed
KPH
gust
KPH
rain 1hr
cm
rain 24hr
cm
rain mn
cm
humidity
%
barometer
mb
20260505214503 14 246 20.9 37.0 0.00 0.00 0.00 59 1012.0
20260505214003 15 243 16.1 37.0 0.00 0.00 0.00 57 1012.0
20260505213524 16 241 12.9 22.5 0.00 0.00 0.00 52 1012.0
20260505213003 15 241 9.7 22.5 0.00 0.00 0.00 52 1011.9
20260505212503 16 279 4.8 16.1 0.00 0.00 0.00 49 1012.0
20260505212003 16 326 4.8 12.9 0.00 0.00 0.00 47 1012.0
20260505211503 16 315 6.4 12.9 0.00 0.00 0.00 45 1011.9
20260505211003 16 333 9.7 24.1 0.00 0.00 0.00 45 1011.6
20260505210503 16 340 9.7 24.1 0.00 0.00 0.00 46 1011.8
20260505210003 17 321 6.4 16.1 0.00 0.00 0.00 44 1012.0
20260505205524 16 322 3.2 11.3 0.00 0.00 0.00 45 1012.0
20260505205003 17 355 3.2 12.9 0.00 0.00 0.00 44 1011.6
20260505204503 17 356 4.8 14.5 0.00 0.00 0.00 45 1012.2
20260505204003 17 360 4.8 14.5 0.00 0.00 0.00 44 1012.1
20260505203503 17 11 3.2 14.5 0.00 0.00 0.00 45 1012.2
20260505203003 17 12 3.2 14.5 0.00 0.00 0.00 43 1012.2
20260505202524 16 6 4.8 14.5 0.00 0.00 0.00 48 1012.3
20260505202003 16 2 3.2 12.9 0.00 0.00 0.00 46 1012.2
20260505201524 16 2 4.8 14.5 0.00 0.00 0.00 46 1012.3
20260505201003 16 1 6.4 17.7 0.00 0.00 0.00 47 1012.5
20260505200503 16 349 4.8 17.7 0.00 0.00 0.00 47 1012.3
20260505200003 16 316 4.8 12.9 0.00 0.00 0.00 47 1012.3
20260505195524 16 324 6.4 16.1 0.00 0.00 0.00 48 1012.6
20260505195003 15 344 6.4 16.1 0.00 0.00 0.00 48 1012.6
20260505194503 15 350 6.4 20.9 0.00 0.00 0.00 48 1012.6
20260505194003 15 335 9.7 20.9 0.00 0.00 0.00 48 1012.6
20260505193504 15 320 9.7 17.7 0.00 0.00 0.00 49 1013.0
20260505193003 15 326 9.7 17.7 0.00 0.00 0.00 50 1013.0
20260505192504 14 323 9.7 16.1 0.00 0.00 0.00 50 1012.9
20260505192003 15 269 8.0 12.9 0.00 0.00 0.00 50 1012.9
20260505191503 14 206 8.0 12.9 0.00 0.00 0.00 55 1013.0
20260505191003 14 199 9.7 14.5 0.00 0.00 0.00 59 1013.2
20260505190503 13 189 11.3 17.7 0.00 0.00 0.00 58 1013.2
20260505190003 14 182 11.3 17.7 0.00 0.00 0.00 57 1013.4
20260505185524 14 188 11.3 20.9 0.00 0.00 0.00 57 1013.2
20260505185003 13 206 11.3 20.9 0.00 0.00 0.00 57 1013.4
20260505184503 14 268 8.0 14.5 0.00 0.00 0.00 55 1013.2
20260505184003 15 293 9.7 20.9 0.00 0.00 0.00 51 1013.0
20260505183503 14 293 9.7 20.9 0.00 0.00 0.00 51 1013.2
20260505183024 15 311 9.7 16.1 0.00 0.00 0.00 51 1013.3
20260505182503 15 310 11.3 20.9 0.00 0.00 0.00 50 1013.0
20260505182004 15 302 11.3 20.9 0.00 0.00 0.00 52 1013.3
20260505181503 15 302 4.8 14.5 0.00 0.00 0.00 50 1013.2
20260505181003 15 206 3.2 12.9 0.00 0.00 0.00 47 1012.9
20260505180504 15 202 4.8 12.9 0.00 0.00 0.00 48 1013.0
20260505180003 14 214 4.8 11.3 0.00 0.00 0.00 50 1013.0
20260505175503 15 218 6.4 12.9 0.00 0.00 0.00 48 1013.2
20260505175003 15 207 6.4 12.9 0.00 0.00 0.00 46 1013.3
20260505174504 15 239 4.8 11.3 0.00 0.00 0.00 46 1012.9
20260505174003 15 260 4.8 11.3 0.00 0.00 0.00 46 1013.0
20260505173524 15 258 6.4 11.3 0.00 0.00 0.00 46 1013.0
20260505173003 15 223 6.4 16.1 0.00 0.00 0.00 46 1012.9
20260505172524 15 206 6.4 16.1 0.00 0.00 0.00 46 1013.0
20260505172003 15 258 3.2 11.3 0.00 0.00 0.00 45 1012.7
20260505171503 15 320 3.2 11.3 0.00 0.00 0.00 45 1012.9
20260505171003 15 309 4.8 11.3 0.00 0.00 0.00 46 1013.0
20260505170503 14 321 6.4 14.5 0.00 0.00 0.00 47 1013.2
20260505170003 14 329 9.7 17.7 0.00 0.00 0.00 48 1013.2
20260505165503 14 337 8.0 17.7 0.00 0.00 0.00 46 1013.2
20260505165003 14 359 6.4 16.1 0.00 0.00 0.00 46 1013.3
20260505164503 15 1 6.4 16.1 0.00 0.00 0.00 47 1013.3
20260505164004 14 359 8.0 16.1 0.00 0.00 0.00 47 1012.9
20260505163503 14 1 9.7 22.5 0.00 0.00 0.00 49 1012.9
20260505163003 13 2 9.7 22.5 0.00 0.00 0.00 49 1013.2
20260505162503 13 4 8.0 16.1 0.00 0.00 0.00 48 1013.4
20260505162003 13 5 9.7 20.9 0.00 0.00 0.00 50 1013.5
20260505161503 13 4 11.3 24.1 0.00 0.00 0.00 51 1013.2
20260505161003 12 3 12.9 24.1 0.00 0.00 0.00 54 1013.2
20260505160503 12 3 11.3 24.1 0.00 0.00 0.00 56 1013.3
20260505153024 12 3 16.1 33.8 0.00 0.00 0.00 55 1013.5
20260505152503 12 1 16.1 33.8 0.00 0.00 0.00 58 1013.9
20260505152003 12 356 16.1 33.8 0.00 0.00 0.00 59 1014.1
20260505151503 12 355 14.5 27.4 0.00 0.00 0.00 62 1014.1
20260505151003 12 357 14.5 27.4 0.00 0.00 0.00 64 1014.1
20260505150503 12 355 12.9 24.1 0.00 0.00 0.00 64 1014.1
20260505140504 12 5 12.9 24.1 0.00 0.00 0.00 58 1013.7
20260505125003 15 297 6.4 11.3 0.00 0.00 0.00 39 1013.0
20260505124503 15 302 8.0 12.9 0.00 0.00 0.00 39 1012.7
20260505124003 15 303 9.7 12.9 0.00 0.00 0.00 39 1012.6
20260505123504 15 296 9.7 12.9 0.00 0.00 0.00 39 1012.7
20260505123003 15 289 9.7 16.1 0.00 0.00 0.00 39 1012.8
20260505122503 15 283 9.7 16.1 0.00 0.00 0.00 38 1012.8
20260505122024 15 276 9.7 14.5 0.00 0.00 0.00 38 1012.7
20260505121503 15 274 11.3 16.1 0.00 0.00 0.00 38 1012.7
20260505121024 15 272 9.7 16.1 0.00 0.00 0.00 38 1012.7
20260505120503 15 276 9.7 16.1 0.00 0.00 0.00 38 1012.6
20260505120004 15 291 8.0 14.5 0.00 0.00 0.00 38 1012.8
20260505115524 15 300 8.0 12.9 0.00 0.00 0.00 38 1012.7
20260505115003 15 292 9.7 16.1 0.00 0.00 0.00 38 1012.7
20260505114503 15 283 11.3 16.1 0.00 0.00 0.00 38 1012.9
20260505114003 15 279 11.3 16.1 0.00 0.00 0.00 39 1012.5
20260505113503 15 275 9.7 16.1 0.00 0.00 0.00 39 1012.3
20260505113003 15 278 11.3 17.7 0.00 0.00 0.00 39 1012.3
20260505112503 15 278 11.3 17.7 0.00 0.00 0.00 39 1012.2
20260505112003 15 277 11.3 16.1 0.00 0.00 0.00 38 1012.5
20260505111524 15 283 11.3 16.1 0.00 0.00 0.00 37 1012.3
20260505111003 15 288 12.9 16.1 0.00 0.00 0.00 37 1012.2
20260505110504 15 284 12.9 17.7 0.00 0.00 0.00 37 1012.3
20260505102003 15 279 8.0 12.9 0.00 0.00 0.00 34 1012.7
20260505101503 15 274 6.4 12.9 0.00 0.00 0.00 34 1012.9
20260505101003 15 267 4.8 6.4 0.00 0.00 0.00 34 1012.8
20260505100503 15 269 4.8 6.4 0.00 0.00 0.00 35 1012.7
20260505100003 15 276 4.8 6.4 0.00 0.00 0.00 35 1012.7
20260505095503 15 281 4.8 6.4 0.00 0.00 0.00 36 1012.7
20260505095003 15 280 4.8 6.4 0.00 0.00 0.00 35 1012.7
20260505094503 15 273 4.8 9.7 0.00 0.00 0.00 34 1012.5
20260505094003 15 272 4.8 9.7 0.00 0.00 0.00 34 1012.5
20260505093503 15 275 4.8 6.4 0.00 0.00 0.00 34 1012.6
20260505093003 15 276 4.8 4.8 0.00 0.00 0.00 34 1012.5
20260505092503 15 276 3.2 4.8 0.00 0.00 0.00 34 1012.6
20260505092003 15 276 3.2 3.2 0.00 0.00 0.00 35 1012.5
20260505091503 15 276 3.2 3.2 0.00 0.00 0.00 34 1012.7
20260505091003 15 276 1.6 3.2 0.00 0.00 0.00 34 1012.9
20260505090503 15 277 3.2 4.8 0.00 0.00 0.00 34 1012.7
20260505090004 15 278 3.2 4.8 0.00 0.00 0.00 34 1012.9
20260505085503 15 281 3.2 4.8 0.00 0.00 0.00 34 1012.9
20260505085003 15 284 3.2 4.8 0.00 0.00 0.00 34 1013.0
20260505084504 16 287 3.2 4.8 0.00 0.00 0.00 33 1013.0
20260505084003 16 289 3.2 3.2 0.00 0.00 0.00 33 1013.2
20260505083524 16 293 3.2 4.8 0.00 0.00 0.00 32 1013.2
20260505083003 16 302 4.8 14.5 0.00 0.00 0.00 32 1013.3
20260505082504 16 317 6.4 14.5 0.00 0.00 0.00 32 1013.3
20260505082003 16 323 9.7 16.1 0.00 0.00 0.00 31 1013.2
20260505081524 16 318 11.3 24.1 0.00 0.00 0.00 31 1013.3
20260505081003 17 294 12.9 24.1 0.00 0.00 0.00 31 1013.0
20260505080503 17 282 14.5 22.5 0.00 0.00 0.00 30 1013.3
20260505080003 17 284 14.5 22.5 0.00 0.00 0.00 30 1013.2
20260505075504 17 286 12.9 20.9 0.00 0.00 0.00 30 1013.3
20260505075003 17 285 11.3 17.7 0.00 0.00 0.00 31 1013.4
20260505074503 17 273 11.3 20.9 0.00 0.00 0.00 31 1013.5
20260505074024 17 268 12.9 20.9 0.00 0.00 0.00 31 1013.4
20260505073503 17 267 12.9 20.9 0.00 0.00 0.00 31 1013.3
20260505073003 17 270 11.3 17.7 0.00 0.00 0.00 31 1013.0
20260505072524 17 272 12.9 17.7 0.00 0.00 0.00 31 1013.3
20260505072024 17 263 12.9 17.7 0.00 0.00 0.00 31 1013.0
20260505071503 17 253 12.9 17.7 0.00 0.00 0.00 30 1013.3
20260505071003 17 246 12.9 20.9 0.00 0.00 0.00 30 1013.4
20260505070503 17 244 14.5 20.9 0.00 0.00 0.00 30 1013.2
20260505070003 17 248 14.5 24.1 0.00 0.00 0.00 30 1012.9
20260505065504 17 253 14.5 24.1 0.00 0.00 0.00 29 1012.8
20260505065003 17 254 14.5 22.5 0.00 0.00 0.00 29 1012.7
20260505064504 17 250 14.5 24.1 0.00 0.00 0.00 29 1012.8
20260505064003 18 252 14.5 24.1 0.00 0.00 0.00 28 1012.8
20260505063503 17 258 14.5 24.1 0.00 0.00 0.00 28 1012.8
20260505063003 18 260 14.5 24.1 0.00 0.00 0.00 28 1012.6
20260505062503 18 256 12.9 22.5 0.00 0.00 0.00 28 1012.6
20260505062004 18 255 11.3 20.9 0.00 0.00 0.00 27 1012.8
20260505061503 18 257 12.9 22.5 0.00 0.00 0.00 27 1012.7
20260505061003 18 261 14.5 22.5 0.00 0.00 0.00 26 1012.7
20260505060503 18 267 16.1 25.7 0.00 0.00 0.00 26 1012.7
20260505060024 18 272 17.7 25.7 0.00 0.00 0.00 26 1012.3
20260505055503 18 275 19.3 27.4 0.00 0.00 0.00 26 1012.5
20260505055025 18 271 20.9 29.0 0.00 0.00 0.00 25 1012.5
20260505054524 18 269 19.3 29.0 0.00 0.00 0.00 25 1012.5
20260505054003 18 272 19.3 27.4 0.00 0.00 0.00 25 1012.3
20260505053524 19 269 19.3 33.8 0.00 0.00 0.00 25 1012.1
20260505053003 19 264 19.3 33.8 0.00 0.00 0.00 25 1012.3
20260505052503 19 262 17.7 25.7 0.00 0.00 0.00 24 1012.2
20260505052003 19 263 14.5 25.7 0.00 0.00 0.00 24 1012.0
20260505051503 19 267 12.9 20.9 0.00 0.00 0.00 24 1012.6
20260505051003 19 264 12.9 22.5 0.00 0.00 0.00 24 1012.5
20260505050524 19 258 12.9 22.5 0.00 0.00 0.00 24 1012.3
20260505041503 20 270 8.0 14.5 0.00 0.00 0.00 24 1012.0
20260505041024 20 269 8.0 12.9 0.00 0.00 0.00 24 1012.0
20260505040503 20 272 8.0 14.5 0.00 0.00 0.00 24 1012.0
20260505040004 20 278 9.7 14.5 0.00 0.00 0.00 23 1012.1
20260505035503 20 286 11.3 17.7 0.00 0.00 0.00 23 1012.1
20260505035024 20 287 11.3 17.7 0.00 0.00 0.00 23 1012.1
20260505034503 20 291 11.3 16.1 0.00 0.00 0.00 23 1011.9
20260505034003 20 295 11.3 16.1 0.00 0.00 0.00 23 1011.9
20260505033504 20 294 11.3 16.1 0.00 0.00 0.00 23 1011.9
20260505033003 21 300 11.3 16.1 0.00 0.00 0.00 23 1012.0
20260505032503 21 303 11.3 17.7 0.00 0.00 0.00 23 1011.9
20260505032003 21 308 12.9 20.9 0.00 0.00 0.00 23 1011.5
20260505031503 21 313 12.9 20.9 0.00 0.00 0.00 22 1011.3
20260505031003 21 318 14.5 22.5 0.00 0.00 0.00 23 1011.5
20260505030503 21 325 17.7 24.1 0.00 0.00 0.00 22 1011.5
20260505030003 21 330 19.3 30.6 0.00 0.00 0.00 22 1011.2
20260505025524 21 331 19.3 30.6 0.00 0.00 0.00 22 1011.2
20260505025003 21 315 19.3 30.6 0.00 0.00 0.00 22 1011.0
20260505024503 21 297 20.9 30.6 0.00 0.00 0.00 21 1011.2
20260505024024 21 291 22.5 30.6 0.00 0.00 0.00 21 1010.9
20260505023503 22 288 20.9 33.8 0.00 0.00 0.00 21 1010.6
20260505023003 22 284 17.7 33.8 0.00 0.00 0.00 20 1011.2
20260505022503 21 281 17.7 30.6 0.00 0.00 0.00 20 1010.8
20260505022003 22 282 19.3 30.6 0.00 0.00 0.00 20 1011.0
20260505021504 22 290 19.3 29.0 0.00 0.00 0.00 20 1010.8
20260505021024 22 289 20.9 33.8 0.00 0.00 0.00 20 1010.8
20260505020524 22 283 20.9 35.4 0.00 0.00 0.00 19 1010.8
20260505020003 22 278 20.9 35.4 0.00 0.00 0.00 19 1010.5
20260505015503 22 279 20.9 30.6 0.00 0.00 0.00 19 1010.5
20260505015003 22 281 17.7 30.6 0.00 0.00 0.00 19 1010.5
20260505014504 22 281 16.1 29.0 0.00 0.00 0.00 20 1010.5
20260505014003 22 280 14.5 25.7 0.00 0.00 0.00 20 1010.5
20260505013503 22 280 11.3 20.9 0.00 0.00 0.00 20 1010.3
20260505013025 22 282 12.9 22.5 0.00 0.00 0.00 20 1010.3
20260505012503 23 286 14.5 22.5 0.00 0.00 0.00 20 1010.1
20260505012003 23 286 16.1 25.7 0.00 0.00 0.00 20 1010.1
20260505011504 23 287 17.7 27.4 0.00 0.00 0.00 19 1010.2
20260505011003 23 288 17.7 27.4 0.00 0.00 0.00 19 1010.1
20260505010524 23 282 16.1 25.7 0.00 0.00 0.00 19 1010.1
20260505010003 23 282 17.7 27.4 0.00 0.00 0.00 19 1010.2
20260505005503 23 282 19.3 30.6 0.00 0.00 0.00 19 1010.2
20260505005004 23 281 17.7 30.6 0.00 0.00 0.00 19 1010.3
20260505004503 23 282 16.1 25.7 0.00 0.00 0.00 18 1010.0
20260505004003 23 283 17.7 29.0 0.00 0.00 0.00 18 1010.1
20260505003503 23 284 19.3 30.6 0.00 0.00 0.00 18 1010.2
20260505003003 23 284 19.3 30.6 0.00 0.00 0.00 17 1010.2
20260505002503 23 283 17.7 30.6 0.00 0.00 0.00 17 1010.2
20260505002024 23 281 20.9 35.4 0.00 0.00 0.00 17 1010.7
20260505001503 23 282 24.1 37.0 0.00 0.00 0.00 17 1010.3
20260505001003 24 281 24.1 37.0 0.00 0.00 0.00 16 1010.1
20260505000503 24 274 22.5 37.0 0.00 0.00 0.00 16 1010.3
20260505000003 24 270 20.9 33.8 0.00 0.00 0.00 16 1010.2
20260504235525 24 273 19.3 35.4 0.00 0.00 0.00 16 1010.1
20260504235003 23 273 19.3 35.4 0.00 0.00 0.00 16 1010.3
20260504234503 24 278 19.3 29.0 0.00 0.00 0.00 15 1010.3
20260504234024 24 279 17.7 29.0 0.00 0.00 0.00 15 1010.5
20260504233524 24 273 17.7 27.4 0.00 0.00 0.00 15 1010.6
20260504233003 24 281 19.3 27.4 0.00 0.00 0.00 15 1010.7
20260504232503 23 283 19.3 30.6 0.00 0.00 0.00 15 1010.7
20260504232003 24 275 20.9 30.6 0.00 0.00 0.00 15 1010.7
20260504231503 24 275 19.3 30.6 0.00 0.00 0.00 14 1010.7
20260504231003 24 275 17.7 27.4 0.00 0.00 0.00 14 1010.9
20260504230503 24 271 19.3 33.8 0.00 0.00 0.00 13 1010.7
20260504230003 24 281 20.9 33.8 0.00 0.00 0.00 13 1010.7
20260504225524 24 282 20.9 33.8 0.00 0.00 0.00 13 1010.9
20260504225024 24 269 20.9 33.8 0.00 0.00 0.00 13 1010.6
20260504224503 25 268 19.3 30.6 0.00 0.00 0.00 12 1010.9
20260504224003 25 270 20.9 35.4 0.00 0.00 0.00 12 1010.8
20260504223503 25 273 20.9 35.4 0.00 0.00 0.00 13 1010.7
20260504223003 25 273 20.9 40.2 0.00 0.00 0.00 13 1010.8
20260504222503 25 269 20.9 40.2 0.00 0.00 0.00 12 1011.2
20260504222003 25 269 19.3 30.6 0.00 0.00 0.00 12 1011.2
20260504221503 25 265 20.9 30.6 0.00 0.00 0.00 13 1011.2
20260504221003 25 258 20.9 37.0 0.00 0.00 0.00 12 1011.2
20260504220503 25 251 22.5 40.2 0.00 0.00 0.00 12 1011.5
20260504220004 25 256 20.9 40.2 0.00 0.00 0.00 11 1011.3
20260504215503 25 264 19.3 33.8 0.00 0.00 0.00 11 1011.2
20260504215003 25 251 20.9 33.8 0.00 0.00 0.00 11 1011.4